Weather History for KBQK - February, 2014

Change the Weather History Date:

Friday, February 21, 2014

  Actual Average Record
Temperature  
Mean Temperature 68 °F -  
Max Temperature 73 °F 67 °F 85 °F (1986)
Min Temperature 62 °F 46 °F 26 °F (1958)
Cooling Degree Days 2    
Growing Degree Days 18 (Base 50)    
Moisture  
Dew Point 63 °F    
Average Humidity 89    
Maximum Humidity 100    
Minimum Humidity 78    
Precipitation  
Precipitation 0.00 in - - ()
Sea Level Pressure  
Sea Level Pressure 30.02 in    
Wind  
Wind Speed 6 mph (SSW)    
Max Wind Speed 15 mph    
Max Gust Speed 21 mph    
Visibility 10 miles    
Events Thunderstorm    
Averages and records for this station are not official NWS values.
T = Trace of Precipitation, MM = Missing Value Source: NWS Daily Summary

Daily Weather History Graph

Daily Weather History Graph

Search for Another Location

Airport or City:

Trip Planner

Search our weather history database for the weather conditions in past years. The results will help you decide how hot, cold, wet, or windy it might be!

Date:

Astronomy

Feb. 21, 2014 Rise Set
Actual Time 7:01 AM EST 6:18 PM EST
Civil Twilight 6:36 AM EST 6:42 PM EST
Nautical Twilight 6:08 AM EST 7:10 PM EST
Astronomical Twilight 5:40 AM EST 7:39 PM EST
Moon No Moon Rise 10:50 AM EST (2/21)
Length of Visible Light 12h 05m
Length of Day
11h 16m
Waning Gibbous, 61% of the Moon is Illuminated
Feb 21
Waning Gibbous
Feb 22
Last Quarter
Mar 1
New
Mar 8
First Quarter
Mar 16
Full

Hourly Weather History & Observations

Time (EST) Temp. Dew Point Humidity Pressure Visibility Wind Dir Wind Speed Gust Speed Precip Events Conditions
12:15 AM 68.0 °F 62.6 °F 83% 30.07 in 10.0 mi SSE 5.8 mph - N/A   Clear
12:35 AM 66.2 °F 62.6 °F 88% 30.06 in 10.0 mi South 4.6 mph - N/A   Clear
12:55 AM 68.0 °F 62.6 °F 83% 30.05 in 10.0 mi South 5.8 mph - N/A   Clear
1:15 AM 68.0 °F 62.6 °F 83% 30.04 in 10.0 mi South 5.8 mph - N/A   Clear
1:35 AM 68.0 °F 62.6 °F 83% 30.04 in 10.0 mi South 6.9 mph - N/A   Clear
1:55 AM 68.0 °F 62.6 °F 83% 30.04 in 10.0 mi South 8.1 mph - N/A   Clear
2:15 AM 68.0 °F 62.6 °F 83% 30.03 in 10.0 mi South 8.1 mph - N/A   Clear
2:35 AM 68.0 °F 62.6 °F 83% 30.03 in 10.0 mi South 6.9 mph - N/A   Scattered Clouds
2:55 AM 68.0 °F 62.6 °F 83% 30.03 in 10.0 mi South 5.8 mph - N/A   Scattered Clouds
3:15 AM 66.2 °F 62.6 °F 88% 30.03 in 10.0 mi South 5.8 mph - N/A   Clear
3:35 AM 68.0 °F 62.6 °F 83% 30.02 in 10.0 mi SSW 8.1 mph - N/A   Clear
3:55 AM 66.2 °F 62.6 °F 88% 30.01 in 10.0 mi South 5.8 mph - N/A   Clear
4:15 AM 66.2 °F 62.6 °F 88% 30.00 in 10.0 mi South 4.6 mph - N/A   Clear
4:35 AM 66.2 °F 62.6 °F 88% 30.01 in 10.0 mi South 4.6 mph - N/A   Clear
4:55 AM 64.4 °F 62.6 °F 94% 30.01 in 10.0 mi South 4.6 mph - N/A   Clear
5:15 AM 66.2 °F 62.6 °F 88% 30.01 in 10.0 mi SSW 4.6 mph - N/A   Clear
5:35 AM 66.2 °F 62.6 °F 88% 30.01 in 10.0 mi South 4.6 mph - N/A   Clear
5:55 AM 66.2 °F 64.4 °F 94% 30.01 in 10.0 mi South 5.8 mph - N/A   Clear
6:15 AM 66.2 °F 64.4 °F 94% 30.02 in 10.0 mi South 4.6 mph - N/A   Clear
6:35 AM 64.4 °F 62.6 °F 94% 30.02 in 10.0 mi SSE 4.6 mph - N/A   Clear
6:55 AM 66.2 °F 64.4 °F 94% 30.01 in 10.0 mi South 6.9 mph - N/A   Mostly Cloudy
7:15 AM 68.0 °F 64.4 °F 88% 30.02 in 10.0 mi South 8.1 mph - N/A   Overcast
7:35 AM 68.0 °F 66.2 °F 94% 30.01 in 10.0 mi South 8.1 mph - N/A   Overcast
7:55 AM 68.0 °F 66.2 °F 94% 30.01 in 10.0 mi SSE 8.1 mph - N/A   Overcast
8:15 AM 68.0 °F 64.4 °F 88% 30.02 in 10.0 mi South 5.8 mph - N/A   Overcast
8:35 AM 69.8 °F 68.0 °F 94% 30.03 in 10.0 mi SSW 8.1 mph - N/A   Overcast
8:55 AM 71.6 °F 68.0 °F 88% 30.03 in 10.0 mi South 12.7 mph - N/A   Overcast
9:15 AM 71.6 °F 68.0 °F 88% 30.03 in 10.0 mi South 9.2 mph - N/A   Overcast
9:35 AM 71.6 °F 68.0 °F 88% 30.02 in 10.0 mi South 13.8 mph - N/A   Overcast
9:55 AM 71.6 °F 68.0 °F 88% 30.02 in 10.0 mi SSW 12.7 mph 19.6 mph N/A   Overcast
10:15 AM 73.4 °F 68.0 °F 83% 30.01 in 10.0 mi South 12.7 mph 19.6 mph N/A   Overcast
10:35 AM 73.4 °F 68.0 °F 83% 30.02 in 10.0 mi SSW 11.5 mph 17.3 mph N/A   Overcast
10:55 AM 73.4 °F 68.0 °F 83% 30.03 in 10.0 mi SW 15.0 mph 20.7 mph N/A   Overcast
11:15 AM 73.4 °F 68.0 °F 83% 30.05 in 10.0 mi WSW 12.7 mph 18.4 mph N/A Thunderstorm Overcast
11:35 AM 64.4 °F 60.8 °F 88% 30.09 in 5.0 mi West 13.8 mph 19.6 mph N/A Thunderstorm Overcast
11:55 AM 62.6 °F 60.8 °F 94% 30.06 in 4.0 mi WSW 9.2 mph - N/A Thunderstorm Thunderstorm
12:15 PM 62.6 °F 60.8 °F 94% 30.04 in 10.0 mi SSE 6.9 mph - N/A Thunderstorm Thunderstorm
12:35 PM 62.6 °F 60.8 °F 94% 30.04 in 10.0 mi South 6.9 mph - N/A Thunderstorm Overcast
12:55 PM 62.6 °F 60.8 °F 94% 29.99 in 10.0 mi SSE 6.9 mph - N/A   Overcast
1:15 PM 62.6 °F 62.6 °F 100% 30.02 in 10.0 mi South 6.9 mph - N/A   Overcast
1:35 PM 62.6 °F 62.6 °F 100% 30.00 in 10.0 mi South 6.9 mph - N/A   Overcast
1:55 PM 64.4 °F 62.6 °F 94% 30.01 in 10.0 mi South 11.5 mph - N/A   Overcast
2:15 PM 64.4 °F 62.6 °F 94% 30.00 in 10.0 mi South 8.1 mph - N/A   Mostly Cloudy
2:35 PM 64.4 °F 62.6 °F 94% 30.00 in 10.0 mi South 9.2 mph - N/A   Mostly Cloudy
2:55 PM 66.2 °F 62.6 °F 88% 30.00 in 10.0 mi SSW 6.9 mph - N/A   Mostly Cloudy
3:15 PM 66.2 °F 62.6 °F 88% 30.00 in 10.0 mi SSW 6.9 mph - N/A   Overcast
3:35 PM 68.0 °F 64.4 °F 88% 29.98 in 10.0 mi SSW 5.8 mph - N/A   Overcast
3:55 PM 68.0 °F 62.6 °F 83% 29.99 in 10.0 mi WSW 10.4 mph 16.1 mph N/A   Overcast
4:15 PM 68.0 °F 62.6 °F 83% 29.98 in 10.0 mi SW 6.9 mph - N/A   Mostly Cloudy
4:35 PM 69.8 °F 64.4 °F 83% 29.98 in 10.0 mi SW 8.1 mph - N/A   Mostly Cloudy
4:55 PM 69.8 °F 62.6 °F 78% 29.98 in 10.0 mi WSW 10.4 mph - N/A   Scattered Clouds
5:15 PM 69.8 °F 62.6 °F 78% 29.98 in 10.0 mi WSW 9.2 mph - N/A   Scattered Clouds
5:35 PM 69.8 °F 62.6 °F 78% 29.99 in 10.0 mi WSW 5.8 mph - N/A   Scattered Clouds
5:55 PM 68.0 °F 62.6 °F 83% 30.00 in 10.0 mi SW 4.6 mph - N/A   Scattered Clouds
6:15 PM 66.2 °F 62.6 °F 88% 30.00 in 10.0 mi West 4.6 mph - N/A   Scattered Clouds
6:35 PM 64.4 °F 62.6 °F 94% 30.00 in 10.0 mi Calm Calm - N/A   Scattered Clouds
6:55 PM 64.4 °F 62.6 °F 94% 30.00 in 10.0 mi Calm Calm - N/A   Mostly Cloudy
7:15 PM 64.4 °F 62.6 °F 94% 30.01 in 10.0 mi Calm Calm - N/A   Overcast
7:35 PM 64.4 °F 64.4 °F 100% 30.02 in 10.0 mi NW 9.2 mph - N/A   Overcast
7:55 PM 64.4 °F 62.6 °F 94% 30.03 in 10.0 mi WNW 3.5 mph - N/A   Overcast
8:15 PM 64.4 °F 60.8 °F 88% 30.04 in 10.0 mi West 3.5 mph - N/A   Overcast
8:35 PM 64.4 °F 60.8 °F 88% 30.04 in 10.0 mi WNW 3.5 mph - N/A   Overcast
8:55 PM 64.4 °F 59.0 °F 83% 30.05 in 10.0 mi Calm Calm - N/A   Overcast
9:15 PM 64.4 °F 59.0 °F 83% 30.05 in 10.0 mi Calm Calm - N/A   Overcast
9:35 PM 62.6 °F 59.0 °F 88% 30.06 in 10.0 mi Calm Calm - N/A   Overcast
9:55 PM 62.6 °F 59.0 °F 88% 30.06 in 10.0 mi Calm Calm - N/A   Overcast
10:15 PM 62.6 °F 60.8 °F 94% 30.07 in 10.0 mi Calm Calm - N/A   Overcast
10:35 PM 62.6 °F 59.0 °F 88% 30.07 in 10.0 mi Calm Calm - N/A   Overcast
10:55 PM 62.6 °F 59.0 °F 88% 30.07 in 10.0 mi Calm Calm - N/A   Overcast
11:15 PM 62.6 °F 59.0 °F 88% 30.08 in 10.0 mi Calm Calm - N/A   Overcast
11:35 PM 62.6 °F 60.8 °F 94% 30.07 in 10.0 mi Calm Calm - N/A   Overcast
11:55 PM 62.6 °F 60.8 °F 94% 30.07 in 10.0 mi Calm Calm - N/A   Overcast